Location: Burbank
(38.7788°N, 114.0429°W)
Time: 21:03:57
(UTC+00:00)

S-56A Canister/Altair - Pass Details

Date: 19 May 2026
Orbit: 632 x 2484 km, 38.9° (Epoch: 8 June)

Event Time Altitude Azimuth Distance (km) Brightness Sun altitude
Rises 06:06:23 0° 279° (W) 2,930 10.9 -28.0°
Reaches altitude 10° 06:08:37 10° 277° (W) 2,008 10.0 -28.2°
Enters shadow 06:10:45 29° 273° (W) 1,187 8.6 -28.4°
Maximum altitude 06:13:02 77° 192° (SSW) 689 - -28.5°
Drops below altitude 10° 06:18:14 10° 107° (ESE) 2,353 - -28.9°
Sets 06:21:03 0° 106° (ESE) 3,488 - -29.1°
